AirNav   Air Wisconsin pilot careers
 
 524 users online  

98FL Sand Lake Seaplane Base
Orlando/Buena Vista, Florida, USA

GOING TO ORLANDO/BUENA VISTA?


FAA INFORMATION EFFECTIVE 24 MAY 2018

Location

FAA Identifier: 98FL
Lat/Long: 28-26-01.0220N / 081-29-29.2600W
28-26.017033N / 081-29.487667W
28.4336172 / -81.4914611
(estimated)
Elevation: 90 ft. / 27 m (estimated)
Variation: 03W (1985)
From city: 5 miles W of central business district of the associated city
Time zone: UTC -4 (UTC -5 during Standard Time)
Zip code: 32836

Seaplane Base Operations

Seaplane Base use: Private use, PERSONAL USE.
Activation date: 07/1990
Control tower: no
ARTCC: JACKSONVILLE CENTER
FSS: SAINT PETERSBURG FLIGHT SERVICE STATION
Attendance: UNATNDD
Segmented circle: no

Seaplane Base Communications

WX AWOS-3PT at ISM (9 nm S): 128.775 (407-847-0533)
WX ASOS at MCO (10 nm E): PHONE 407-855-5235
WX ASOS at ORL (11 nm NE): PHONE 407-658-6753

Nearby radio navigation aids

VOR radial/distance  VOR name  Freq  Var
ORLr232/10.5ORLANDO VORTAC112.2000E
LALr045/38.5LAKELAND VORTAC116.0001E

 
NDB name  Hdg/Dist  Freq  Var  ID
HERNY221/5.322106WOR --- .-.
LEESBURG148/28.433504WLEE .-.. . .

Seaplane Base Services

Runway Information

Runway 18/36

Dimensions: 2000 x 500 ft. / 610 x 152 m
Surface: water
RUNWAY 18  RUNWAY 36
Traffic pattern: leftleft

Seaplane Base Ownership and Management from official FAA records

Ownership: Privately-owned
Owner: SCOTT & PATTY NOLEN
9000 OGILVIE DRIVE
ORLANDO, FL 32819
Phone (520) 906-3178
Manager: SCOTT & PATTY NOLEN
9000 OGILVIE DRIVE
ORLANDO, FL 32819
Phone (520) 906-3178

Seaplane Base Operational Statistics

Aircraft based on the field: 1
Single engine airplanes: 1
    

Instrument Procedures

There are no published instrument procedures at 98FL.

Some nearby airports with instrument procedures:

KISM - Kissimmee Gateway Airport (9 nm S)
KMCO - Orlando International Airport (10 nm E)
KORL - Executive Airport (11 nm NE)
X04 - Orlando Apopka Airport (17 nm N)
KSFB - Orlando Sanford International Airport (25 nm NE)
 
Loc | Ops | Rwys | IFR | FBO | Links
Com | Nav | Svcs | Stats | Notes


 
Area around 98FL (Sand Lake Seaplane Base)
 
Road maps at: MapQuest Bing Google
 
Aerial photo
No photo
 
Sectional chart

 
Airport distance calculator
Flying to Sand Lake Seaplane Base? Find the distance to fly.

From to 98FL

Sunrise and sunset
Times for 26-May-2018
 Local
(UTC-4)
 Zulu
(UTC)
Morning civil twilight06:0510:05
Sunrise06:3110:31
Sunset20:1500:15
Evening civil twilight20:4100:41

Current date and time
Zulu (UTC)  26-May-2018 04:48:04
Local (UTC-4)  26-May-2018 00:48:04
 
METAR
KMCO 
8nm E 
260353Z 12004KT 10SM BKN150 OVC250 23/22 A3000 RMK AO2 SLP159 T02330222
KISM 
10nm S 
260356Z AUTO 15005KT 10SM CLR 23/22 A3001 RMK AO2 SLP164 T02280217
KORL 
11nm NE 
260353Z AUTO 13004KT 10SM CLR 24/22 A3000 RMK AO2 SLP162 T02390222
TAF
KMCO 
8nm E 
260259Z 2603/2706 16005KT P6SM FEW010 BKN120 OVC250 FM261400 14010KT P6SM SCT025 SCT100 OVC250 FM261800 12012KT P6SM -RA VCSH FEW025 BKN080 OVC150 TEMPO 2618/2622 3SM SHRA BKN025
KISM 
10nm S 
251734Z 2518/2618 11011KT P6SM VCTS SCT030CB BKN070 BKN250 TEMPO 2518/2521 3SM TSRA BKN030CB FM252100 14010KT P6SM VCSH SCT030 BKN070 BKN120 FM260100 13005KT P6SM FEW025 BKN120 FM261400 12010KT P6SM VCSH SCT025 BKN070 OVC250
NOTAMs
Click for the latest NOTAMs
NOTAMs are issued by the DoD/FAA and will open in a separate window not controlled by AirNav.

 

 
 

Would you like to see your business listed on this page?

 If your business provides an interesting product or service to pilots, flight crews, aircraft, or users of the Sand Lake Seaplane Base, you should consider listing it here.  To start the listing process, click on the button below
 
Add a business
 

Other Pages about Sand Lake Seaplane Base

Update a link
 
Copyright © AirNav, LLC. All rights reserved. Privacy Policy  Contact